Weather in Giaginskaya

Russia / Republic of Adygea     44°52′34″N   40°03′34″E
temp.,
°C
wind,
m/s
gust,
m/s
humid.,
%
clouds,
%
prec.,
mm/h
press.,
hPa
HPBL,
m
8 may, sat
sat800:00+12ese127919 0.0 101711
03:00+11se238884 0.0 101627
06:00+12se2288100 0.0 101643
09:00+18se227283 0.0 1015351
12:00+22se2261100 0.0 1013709
15:00+24ese2250100 0.0 10121216
18:00+23ese12684 0.0 101136
21:00+17ese227524 0.0 101013
9 may, sun
sun900:00+16wsw61570100 0.2 1010380
03:00+14w3880100 0.2 1010221
06:00+14w51297100 1.7 1010566
09:00+9nw71395100 5.3 1014757
12:00+8wnw61094100 2.5 1017705
15:00+8wnw3591100 7.9 1019501
18:00+10wnw4887100 0.8 1021702
21:00+7wsw358938 0.9 102387
10 may, mon
mon1000:00+5sw479411 0.0 1024134
03:00+6wsw489330 0.1 1024170
06:00+5wsw369239 0.0 1024149
09:00+11wnw466944 0.4 10231042
12:00+13wnw685491 0.4 10232030
15:00+13wnw7957100 0.9 10222088
18:00+9nw5981100 0.4 1022642
21:00+7w5993100 1.4 1022542
11 may, tue
tue1100:00+7sw61193100 3.1 1020675
03:00+7sw101686100 4.6 1017964
06:00+8sw101793100 3.6 10171245
09:00+8sw111991100 10.5 10171319
12:00+8sw121986100 4.0 10171316
15:00+9sw111881100 5.2 10181269
18:00+10wsw81579100 0.8 1018736
21:00+8wsw3887100 1.1 1019207
12 may, wed
wed1200:00+8e2286100 0.1 101835
03:00+7e369493 0.1 1018180
06:00+6ene4797100 0.0 1018263
09:00+12ese237965 0.0 1016460
12:00+17e226460 0.0 10161048
15:00+19ene23596 0.0 10151367
18:00+18ne347789 0.0 1014135
21:00+13e36890 0.0 101479